BRITE-TORONTO

Last updated on Fri Nov 22 2019 04:20:15 GMT+0000 (Coordinated Universal Time)

1 40020U 14033L 19325.50780475 .00000064 00000-0 19164-4 0 9998 2 40020 97.7342 160.6250 0087928 20.3766 340.0912 14.66602838290136

Satellite not in orbit

BRITE-TORONTO